This demonstration page uses our WeatherBlox Daily Observations layout. Learn more.

Left ArrowRight Arrow

44.89941, -97.11507

Hourly Observations for July 19, 2016

Temp ( °F °C ) Dew Point ( °F °C ) Humidity (%) Winds ( mph kmh ) Pressure ( in mb ) Visibility ( mi km ) Precip ( " mm )
12:53 am 00:53 Clear 72 22.2 66 18.9 82 82 SE 9 15 30.11 1020 10 16 0.00 0.00
1:53 am 01:53 Clear 72 22.2 67 19.4 84 84 SE 9 15 30.09 1019 10 16 0.00 0.00
2:53 am 02:53 Clear 71 21.7 67 19.4 87 87 SE 7 11 30.09 1019 10 16 0.00 0.00
3:53 am 03:53 Clear 71 21.7 68 20 90 90 SSE 9 15 30.09 1019 10 16 0.00 0.00
4:53 am 04:53 Clear 71 21.7 68 20 90 90 SSE 10 17 30.08 1019 10 16 0.00 0.00
5:53 am 05:53 Mostly Clear 71 21.7 69 20.6 94 94 SE 7 11 30.06 1018 9 14 0.00 0.00
6:53 am 06:53 Cloudy 72 22.2 69 20.6 91 91 SSE 8 13 30.09 1019 9 14 0.00 0.00
7:03 am 07:03 Cloudy 72 22.2 70 21.1 94 94 SSE 9 15 30.03 1017 10 16 0.00 0.00
7:19 am 07:19 Mostly Cloudy 73 22.8 70 21.1 90 90 SE 9 15 30.03 1017 10 16 0.00 0.00
7:53 am 07:53 Sunny 74 23.3 70 21.1 88 88 SSE 12 19 30.07 1018 10 16 0.00 0.00
8:53 am 08:53 Sunny 77 25 71 21.7 82 82 SSE 8 13 30.03 1017 10 16 0.00 0.00
9:53 am 09:53 Sunny 80 26.7 71 21.7 74 74 S 6 9 30.02 1017 10 16 0.00 0.00
10:53 am 10:53 Sunny 84 28.9 69 20.6 61 61 S 5 7 30.00 1016 10 16 0.00 0.00
11:53 am 11:53 Sunny 87 30.6 70 21.1 57 57 S 12 19 30.02 1017 10 16 0.00 0.00
12:53 pm 12:53 Sunny 87 30.6 72 22.2 61 61 S 13 20 30.02 1017 10 16 0.00 0.00
1:53 pm 13:53 Sunny 87 30.6 69 20.6 55 55 S 20 31 30.02 1017 10 16 0.00 0.00
2:53 pm 14:53 Sunny 87 30.6 70 21.1 57 57 S 18 30 30.01 1016 10 16 0.00 0.00
3:53 pm 15:53 Sunny 87 30.6 72 22.2 61 61 SSE 16 26 30.00 1016 10 16 0.00 0.00
4:53 pm 16:53 Sunny 87 30.6 71 21.7 59 59 SSE 15 24 29.98 1015 10 16 0.00 0.00
5:53 pm 17:53 Sunny 86 30 71 21.7 61 61 SSE 15 24 29.97 1015 10 16 0.00 0.00
6:53 pm 18:53 Sunny 84 28.9 71 21.7 65 65 S 13 20 29.97 1015 10 16 0.00 0.00
7:53 pm 19:53 Sunny 82 27.8 71 21.7 69 69 S 14 22 29.96 1014 10 16 0.00 0.00
8:53 pm 20:53 Sunny 80 26.7 72 22.2 76 76 SSE 9 15 29.95 1014 10 16 0.00 0.00
9:53 pm 21:53 Clear 78 25.6 72 22.2 82 82 SSE 13 20 29.94 1014 10 16 0.00 0.00
10:53 pm 22:53 Clear 76 24.4 72 22.2 88 88 SSE 12 19 29.94 1014 10 16 0.00 0.00
11:53 pm 23:53 Clear 76 24.4 72 22.2 88 88 SSE 9 15 29.94 1014 10 16 0.00 0.00

Powered by AerisWeather